Hourly Data Report for September 15, 2017

All times are specified in Local Standard Time (LST). Add 1 hour to adjust for Daylight Saving Time where and when it is observed.

RANKIN INLET A
NUNAVUT

62°48'38.000" N
92°06'53.000" W
32.30 m
2303405
71083
YRT

Download Data

Hourly Data (September 2017)
Hourly Data Report for September 15, 2017
Temp Definition
°C
Dew Point Temp Definition
°C
Rel Hum Definition
%
Wind Dir Definition
10's deg

Wind Spd Definition
km/h
Visibility Definition
km
Stn Press Definition
kPa
Hmdx Definition


Wind Chill Definition


Weather Definition


TIME
00:00 Legend Double Dagger 3.3 2.0 91 33 21 24.1 101.35     Clear
01:00 Legend Double Dagger 2.4 0.9 90 32 22 24.1 101.36     LegendNANA
02:00 Legend Double Dagger 1.7 0.4 91 32 18 24.1 101.38     LegendNANA
03:00 Legend Double Dagger 0.7 0.0 95 31 17 24.1 101.41     Clear
04:00 Legend Double Dagger 0.8 -0.1 94 33 17 24.1 101.43     LegendNANA
05:00 Legend Double Dagger -0.1 -1.1 93 32 16 24.1 101.45   -5 LegendNANA
06:00 Legend Double Dagger 0.0 -1.0 92 31 15 24.1 101.48   -4 Mainly Clear
07:00 Legend Double Dagger 0.6 -0.2 94 30 14 24.1 101.49     LegendNANA
08:00 Legend Double Dagger 2.2 0.9 91 28 13 24.1 101.50     LegendNANA
09:00 Legend Double Dagger 3.6 0.9 83 28 16 24.1 101.48     Mostly Cloudy
10:00 Legend Double Dagger 5.1 1.3 76 27 17 24.1 101.46     LegendNANA
11:00 Legend Double Dagger 6.7 2.0 72 25 18 24.1 101.40     LegendNANA
12:00 Legend Double Dagger 7.7 2.0 67 26 21 24.1 101.38     Mostly Cloudy
13:00 Legend Double Dagger 8.6 2.6 66 25 22 24.1 101.34     LegendNANA
14:00 Legend Double Dagger 10.2 3.0 61 24 25 24.1 101.28     LegendNANA
15:00 Legend Double Dagger 9.9 2.8 61 25 28 24.1 101.25     Mostly Cloudy
16:00 Legend Double Dagger 9.6 4.3 69 25 25 24.1 101.23     LegendNANA
17:00 Legend Double Dagger 8.4 5.5 82 25 23 16.1 101.21     Rain
18:00 Legend Double Dagger 7.7 6.0 89 23 23 8.1 101.18     Rain,Fog
19:00 Legend Double Dagger 7.6 6.3 92 23 28 8.1 101.13     Rain,Fog
20:00 Legend Double Dagger 7.7 6.6 93 25 31 8.1 101.05     Rain,Fog
21:00 Legend Double Dagger 7.7 6.9 95 26 30 8.1 101.02     Rain,Fog
22:00 Legend Double Dagger 7.9 6.9 94 27 25 16.1 101.02     Rain
23:00 Legend Double Dagger 7.8 6.9 94 27 25 16.1 101.01     Rain

Notes on Data Quality.

Legend

  • E = Estimated
  • M = Missing
  • NA = Not Available
  • ‡ = Partner data that is not subject to review by the National Climate Archives
Date modified: